When you browse on this site, cookies collect data to enhance your experience and personalize the content and advertising you see.
Visit our Privacy Policy to learn more. By continuing to use the site, you agree to this use of cookies and data.
  • In Latvia
  • List of Countries
  • For 7 days
  • Water Temperature
  • Satellite Maps
  • Weather Map
  • Weather Widgets
  • user-avatar
    Login

    Hourly Weather Sankt Polten

    Today, 26 May, Sunday

    Time Temperature Precipitation Wind Pressure Humidity
    00:00 +14°C° 0 mm 1 mps 735 mmHg 87%
    01:00 +13°C° 0 mm 1 mps 735 mmHg 90%
    02:00 +13°C° 0 mm 1 mps 735 mmHg 92%
    03:00 +12°C° 0 mm 1 mps 735 mmHg 93%
    04:00 +12°C° 0 mm 2 mps 735 mmHg 95%
    05:00 +14°C° 0 mm 2 mps 735 mmHg 90%
    06:00 +15°C° 0 mm 2 mps 735 mmHg 85%
    07:00 +17°C° 0 mm 2 mps 736 mmHg 79%
    08:00 +19°C° 0 mm 2 mps 735 mmHg 73%
    09:00 +20°C° 0 mm 2 mps 735 mmHg 67%
    10:00 +23°C° 0 mm 2 mps 735 mmHg 61%
    11:00 +24°C° 0.1 mm 2 mps 735 mmHg 58%
    12:00 +25°C° 0.1 mm 1 mps 735 mmHg 55%
    13:00 +26°C° 0.1 mm 1 mps 735 mmHg 52%
    14:00 +26°C° 0.3 mm 1 mps 734 mmHg 55%
    15:00 +23°C° 0.3 mm 0 mps 734 mmHg 57%
    16:00 +23°C° 0.3 mm 0 mps 734 mmHg 60%
    17:00 +21°C° 0.2 mm 0 mps 733 mmHg 66%
    18:00 +20°C° 0.2 mm 0 mps 733 mmHg 73%
    19:00 +18°C° 0.2 mm 0 mps 733 mmHg 79%
    20:00 +17°C° 0 mm 0 mps 733 mmHg 83%
    21:00 +16°C° 0 mm 0 mps 733 mmHg 86%
    22:00 +15°C° 0 mm 1 mps 734 mmHg 89%
    23:00 +15°C° 0 mm 1 mps 733 mmHg 90%

    Tomorrow, 27 May, Monday

    Time Temperature Precipitation Wind Pressure Humidity
    00:00 +15°C° 0 mm 1 mps 733 mmHg 91%
    01:00 +14°C° 0 mm 1 mps 733 mmHg 91%
    02:00 +14°C° 0 mm 1 mps 733 mmHg 92%
    03:00 +14°C° 0 mm 1 mps 732 mmHg 92%
    04:00 +13°C° 0 mm 1 mps 732 mmHg 92%
    05:00 +15°C° 0 mm 1 mps 732 mmHg 87%
    06:00 +16°C° 0 mm 0 mps 732 mmHg 82%
    07:00 +17°C° 0 mm 0 mps 733 mmHg 77%
    08:00 +19°C° 0 mm 0 mps 732 mmHg 70%
    09:00 +21°C° 0 mm 0 mps 732 mmHg 64%
    10:00 +23°C° 0 mm 0 mps 732 mmHg 57%
    11:00 +25°C° 0 mm 1 mps 732 mmHg 56%
    12:00 +26°C° 0 mm 1 mps 732 mmHg 55%
    13:00 +26°C° 0 mm 1 mps 731 mmHg 53%
    14:00 +25°C° 0.3 mm 1 mps 731 mmHg 58%
    15:00 +25°C° 0.3 mm 2 mps 731 mmHg 63%
    16:00 +24°C° 0.3 mm 2 mps 730 mmHg 68%
    17:00 +23°C° 0.6 mm 2 mps 730 mmHg 76%
    18:00 +22°C° 0.6 mm 1 mps 730 mmHg 83%
    19:00 +20°C° 0.6 mm 1 mps 729 mmHg 90%
    20:00 +19°C° 0.5 mm 1 mps 729 mmHg 92%
    21:00 +18°C° 0.5 mm 1 mps 729 mmHg 93%
    22:00 +18°C° 0.5 mm 1 mps 729 mmHg 95%
    23:00 +16°C° 0.1 mm 1 mps 728 mmHg 95%

    Day after tomorrow, 28 May, Tuesday

    Time Temperature Precipitation Wind Pressure Humidity
    00:00 +15°C° 0.1 mm 1 mps 728 mmHg 95%
    01:00 +14°C° 0.1 mm 1 mps 728 mmHg 95%
    02:00 +13°C° 0 mm 1 mps 727 mmHg 95%
    03:00 +13°C° 0 mm 1 mps 727 mmHg 95%
    04:00 +13°C° 0 mm 1 mps 727 mmHg 95%
    05:00 +14°C° 0 mm 2 mps 727 mmHg 93%
    06:00 +15°C° 0 mm 2 mps 727 mmHg 91%
    07:00 +16°C° 0 mm 2 mps 727 mmHg 89%
    08:00 +16°C° 0.3 mm 2 mps 727 mmHg 90%
    09:00 +16°C° 0.3 mm 3 mps 727 mmHg 91%
    10:00 +16°C° 0.3 mm 3 mps 727 mmHg 92%
    11:00 +16°C° 0.2 mm 3 mps 727 mmHg 91%
    12:00 +16°C° 0.2 mm 3 mps 727 mmHg 90%
    13:00 +16°C° 0.2 mm 3 mps 727 mmHg 89%
    14:00 +16°C° 0.3 mm 3 mps 727 mmHg 90%
    15:00 +16°C° 0.3 mm 2 mps 727 mmHg 90%
    16:00 +15°C° 0.3 mm 2 mps 727 mmHg 91%
    17:00 +15°C° 0.6 mm 2 mps 728 mmHg 92%
    18:00 +14°C° 0.6 mm 2 mps 728 mmHg 93%
    19:00 +13°C° 0.6 mm 3 mps 728 mmHg 95%
    20:00 +12°C° 0.3 mm 3 mps 729 mmHg 95%
    21:00 +12°C° 0.3 mm 3 mps 729 mmHg 95%
    22:00 +12°C° 0.3 mm 3 mps 730 mmHg 96%
    23:00 +11°C° 0.5 mm 3 mps 730 mmHg 96%

    29 May, Wednesday

    Time Temperature Precipitation Wind Pressure Humidity
    00:00 +11°C° 0.5 mm 3 mps 730 mmHg 96%
    01:00 +11°C° 0.5 mm 3 mps 730 mmHg 96%
    02:00 +11°C° 0.4 mm 3 mps 730 mmHg 96%
    03:00 +10°C° 0.4 mm 3 mps 731 mmHg 96%
    04:00 +10°C° 0.4 mm 3 mps 731 mmHg 96%
    05:00 +10°C° 0.6 mm 3 mps 731 mmHg 96%
    06:00 +10°C° 0.6 mm 2 mps 731 mmHg 95%
    07:00 +10°C° 0.6 mm 2 mps 732 mmHg 95%
    08:00 +11°C° 0.6 mm 3 mps 732 mmHg 94%
    09:00 +11°C° 0.6 mm 3 mps 733 mmHg 94%
    10:00 +11°C° 0.6 mm 3 mps 733 mmHg 93%
    11:00 +12°C° 0.2 mm 3 mps 733 mmHg 91%
    12:00 +12°C° 0.2 mm 3 mps 733 mmHg 89%
    13:00 +13°C° 0.2 mm 3 mps 734 mmHg 87%
    14:00 +13°C° 0.4 mm 3 mps 734 mmHg 87%
    15:00 +14°C° 0.4 mm 2 mps 734 mmHg 88%
    16:00 +14°C° 0.4 mm 2 mps 734 mmHg 88%
    17:00 +14°C° 0.4 mm 2 mps 735 mmHg 90%
    18:00 +13°C° 0.4 mm 2 mps 735 mmHg 92%
    19:00 +13°C° 0.4 mm 2 mps 735 mmHg 94%
    20:00 +12°C° 0.2 mm 1 mps 736 mmHg 95%
    21:00 +12°C° 0.2 mm 1 mps 736 mmHg 95%
    22:00 +11°C° 0.2 mm 1 mps 737 mmHg 96%
    23:00 +11°C° 0.1 mm 1 mps 737 mmHg 96%

    30 May, Thursday

    Time Temperature Precipitation Wind Pressure Humidity
    00:00 +11°C° 0.1 mm 1 mps 737 mmHg 95%
    01:00 +11°C° 0.1 mm 1 mps 737 mmHg 95%
    02:00 +11°C° 0.2 mm 1 mps 738 mmHg 95%
    03:00 +11°C° 0.2 mm 1 mps 738 mmHg 96%
    04:00 +11°C° 0.2 mm 1 mps 738 mmHg 96%
    05:00 +11°C° 0.2 mm 1 mps 738 mmHg 95%
    06:00 +11°C° 0.2 mm 1 mps 739 mmHg 94%
    07:00 +12°C° 0.2 mm 1 mps 739 mmHg 94%
    08:00 +13°C° 0.1 mm 1 mps 739 mmHg 90%
    09:00 +13°C° 0.1 mm 1 mps 740 mmHg 86%
    10:00 +14°C° 0.1 mm 1 mps 740 mmHg 82%
    11:00 +15°C° 0.2 mm 1 mps 740 mmHg 78%
    12:00 +16°C° 0.2 mm 1 mps 740 mmHg 74%
    13:00 +18°C° 0.2 mm 1 mps 739 mmHg 70%
    14:00 +18°C° 0.2 mm 1 mps 739 mmHg 70%
    15:00 +18°C° 0.2 mm 1 mps 739 mmHg 71%
    16:00 +17°C° 0.2 mm 2 mps 739 mmHg 71%
    17:00 +16°C° 0.2 mm 1 mps 739 mmHg 77%
    18:00 +15°C° 0.2 mm 1 mps 739 mmHg 83%
    19:00 +14°C° 0.2 mm 1 mps 739 mmHg 89%
    20:00 +13°C° 0 mm 1 mps 740 mmHg 89%
    21:00 +12°C° 0 mm 1 mps 740 mmHg 90%
    22:00 +10°C° 0 mm 2 mps 740 mmHg 91%
    23:00 +10°C° 0 mm 2 mps 740 mmHg 92%

    31 May, Friday

    Time Temperature Precipitation Wind Pressure Humidity
    00:00 +10°C° 0 mm 2 mps 740 mmHg 92%
    01:00 +9°C° 0 mm 2 mps 740 mmHg 93%
    02:00 +10°C° 0 mm 2 mps 739 mmHg 93%
    03:00 +10°C° 0 mm 2 mps 739 mmHg 92%
    04:00 +10°C° 0 mm 2 mps 739 mmHg 92%
    05:00 +12°C° 0 mm 2 mps 739 mmHg 90%
    06:00 +12°C° 0 mm 3 mps 739 mmHg 87%
    07:00 +13°C° 0 mm 3 mps 739 mmHg 85%
    08:00 +14°C° 0.1 mm 4 mps 738 mmHg 84%
    09:00 +14°C° 0.1 mm 4 mps 738 mmHg 82%
    10:00 +15°C° 0.1 mm 5 mps 738 mmHg 80%
    11:00 +15°C° 0.1 mm 5 mps 738 mmHg 80%
    12:00 +15°C° 0.1 mm 5 mps 738 mmHg 79%
    13:00 +15°C° 0.1 mm 5 mps 738 mmHg 79%
    14:00 +15°C° 0.4 mm 5 mps 738 mmHg 83%
    15:00 +14°C° 0.4 mm 4 mps 738 mmHg 87%
    16:00 +14°C° 0.4 mm 4 mps 738 mmHg 91%
    17:00 +13°C° 0.8 mm 3 mps 739 mmHg 93%
    18:00 +13°C° 0.8 mm 3 mps 739 mmHg 94%
    19:00 +14°C° 0.8 mm 2 mps 740 mmHg 96%
    20:00 +13°C° 0.2 mm 2 mps 740 mmHg 95%
    21:00 +12°C° 0.2 mm 2 mps 741 mmHg 95%
    22:00 +10°C° 0.2 mm 2 mps 742 mmHg 94%
    23:00 +9°C° 0 mm 2 mps 742 mmHg 95%
    Show more